Location: Col Agnel
(44.6833°N, 6.9833°E)
Time: 23:42:11
(UTC+00:00)

Daily predictions for brighter satellites

Satellite Brightness Start Highest point End
(mag) Time Altitude Azimuth Time Altitude Azimuth Time Altitude Azimuth
YAOGAN 1 3.4 17:30:14 10° SE 17:33:58 30° ENE 17:37:43 10° N
Cosmos 2237 Rocket 3.1 17:30:15 10° SSE 17:34:58 27° ESE 17:39:42 10° NE
BREEZE-M R/B 4.0 17:30:44 10° WNW 17:35:00 64° NNE 17:43:57 10° E
Lacrosse 5 3.6 17:34:13 10° NW 17:38:05 21° N 17:41:56 10° NE
Cosmos 1821 Rocket 4.4 17:32:14 10° N 17:38:15 45° ENE 17:44:18 10° SSE
USA 81 4.1 17:33:11 10° S 17:38:22 62° E 17:43:34 10° NNE
COSMOS 2455 2.9 17:33:36 10° NNW 17:39:36 66° NE 17:45:34 10° SE
CZ-4 R/B 3.0 17:38:05 10° E 17:40:18 15° ENE 17:42:31 10° NNE
Cosmos 1900 4.4 17:36:16 10° SSW 17:41:04 59° ESE 17:45:59 10° NE
SL-4 R/B 4.0 17:39:11 10° SSE 17:41:18 13° SE 17:43:23 10° E
Cosmos 1805 3.1 17:38:48 10° S 17:42:33 77° E 17:46:20 10° NNE
NOSS 0 Rocket 4.2 17:38:43 10° S 17:44:37 48° ESE 17:50:34 10° NE
Meteor 2-10 4.5 17:39:38 10° SSW 17:45:21 79° W 17:50:59 10° N
SL-8 Rocket 4.3 17:40:47 10° N 17:47:04 78° W 17:53:21 10° S
ATLAS 3B R/B 2.8 17:41:05 10° SSW 17:47:57 82° ESE 17:55:22 10° NE
Cosmos 2322 4.0 17:42:33 10° SSW 17:48:16 75° WNW 17:54:01 10° NNE
DEBRIS 2.7 17:46:34 10° WNW 17:48:35 40° SSW 17:51:02 10° SE
Cosmos 1869 Rocket 4.0 17:45:06 10° SSE 17:49:08 37° E 17:53:08 10° NNE
Cosmos 1943 Rocket 3.3 17:44:32 10° N 17:49:16 26° NE 17:53:56 10° ESE
COSMO-SKYMED 1 2.6 17:46:26 10° NNE 17:50:48 87° WNW 17:55:08 10° SSW
Cosmos 1818 3.7 17:45:38 10° NW 17:51:08 87° WSW 17:56:36 10° SSE
Cosmos 2366 rocket 4.1 17:45:31 10° N 17:51:41 82° W 17:57:50 10° S
Cosmos 2333 Rocket 3.9 17:47:05 10° WSW 17:52:12 34° NW 17:57:22 10° N
Cosmos 1470 4.2 17:50:43 10° SE 17:53:11 17° E 17:55:40 10° NE
COSMOS 2428 2.8 17:50:51 10° SSW 17:56:31 82° WNW 18:02:14 10° NNE
Okean 3 4.2 17:53:29 10° NNW 17:57:32 55° W 18:01:34 10° S
SJ-6B 4.3 17:55:30 10° ESE 17:58:20 20° ENE 18:01:15 10° NNE
Cosmos 1340 Rocket 3.7 17:54:48 10° NNW 17:58:45 53° W 18:02:38 10° S
Nadezhda 3 Rocket 4.2 17:55:34 10° SSE 18:01:37 48° E 18:07:42 10° NNE
Okean 1-7 3.5 17:57:19 10° NNW 18:01:38 65° W 18:05:55 10° S
Okean O Rocket 3.0 18:02:09 13° ESE 18:04:31 20° ENE 18:07:44 10° NNE
Akebono 3.6 18:03:15 10° SSW 18:05:31 75° ESE 18:07:35 10° NNE
Cosmos 2219 Rocket 3.7 18:01:28 10° SW 18:06:41 39° NW 18:11:56 10° NNE
Meteor PRIRODA 4.4 18:03:39 10° S 18:07:06 53° W 18:10:36 10° NNW
Tiangong -1.4 18:06:50 10° WSW 18:09:47 39° S 18:11:32 20° ESE
USA 229 DEB 4.2 18:05:53 10° S 18:11:08 31° ESE 18:16:46 10° NE
USA 229 4.2 18:05:58 10° S 18:11:14 31° ESE 18:16:51 10° NE
USA 305 3.7 18:13:00 10° W 18:14:49 21° SW 18:16:38 10° S
Cosmos 405 4.5 18:13:46 10° NNE 18:14:18 13° NE 18:14:18 13° NE
USA 307 4.4 18:14:23 10° W 18:16:13 17° SW 18:18:04 10° S
CZ-4B R/B 2.9 18:13:46 10° S 18:17:13 67° WSW 18:20:44 10° NNW
Resurs 1-3 4.5 18:17:13 18° ESE 18:19:37 29° ENE 18:23:24 10° N
SKYMED 3 4.4 18:17:17 10° NNE 18:21:30 89° ESE 18:25:41 10° SSW
PSLV R/B 4.2 18:22:34 18° SE 18:25:07 40° ENE 18:28:48 10° N
Meteor 2-5 Rocket 4.5 18:20:18 10° N 18:25:15 30° ENE 18:27:52 21° ESE
NOSS 3-1 (A) 3.0 18:22:19 10° SSW 18:27:17 81° SE 18:33:11 10° NE
SME Rocket 4.2 18:21:12 10° SE 18:27:46 44° ENE 18:32:20 10° N
Cosmos 1733 Rocket 3.5 18:25:42 10° SSE 18:29:42 36° E 18:33:41 10° NNE
SPOT 1/Viking Rocket 4.4 18:30:18 24° E 18:32:10 30° ENE 18:36:35 10° N
Resurs 01 Rocket 3.2 18:32:25 19° ENE 18:32:25 19° ENE 18:35:18 10° NNE
IGS 5A 3.5 18:28:09 10° S 18:32:14 77° WSW 18:36:22 10° NNW
USA 186 3.7 18:35:27 16° NNE 18:35:27 16° NNE 18:36:27 10° NNE
Landsat 4 3.7 18:33:10 26° SE 18:34:53 50° ENE 18:38:26 10° N
CZ-4B DEB 4.4 18:30:29 10° S 18:35:55 74° WSW 18:41:23 10° NNW
H-2A R/B (2) 4.1 18:35:50 10° S 18:37:46 13° SSE 18:38:11 12° SSE
Cosmos 1269 Rocket 4.4 18:33:28 10° SSW 18:38:43 68° WNW 18:44:01 10° NNE
Cosmos 1980 3.7 18:34:52 10° SSW 18:40:30 86° WNW 18:46:12 10° NNE
Cosmos 1932 4.4 18:39:13 10° NW 18:45:40 88° NE 18:50:14 20° SE
Okean-O 4.1 18:46:45 21° NE 18:46:45 21° NE 18:49:27 10° NNE
Cosmos 1766 4.2 18:42:47 10° SSW 18:46:26 48° WNW 18:50:07 10° N
CZ-4B R/B 3.0 18:41:17 10° SSE 18:46:33 75° ENE 18:51:53 10° N
Cosmos 2242 Rocket 4.2 18:42:56 10° NNW 18:47:24 60° W 18:51:52 10° S
Cosmos 1867 3.6 18:42:31 10° SW 18:47:57 84° NW 18:53:27 10° NE
Cosmos 1140 Rocket 3.6 18:45:06 10° S 18:50:02 48° ESE 18:55:00 10° NNE
Cosmos 1378 Rocket 3.9 18:48:10 10° N 18:52:14 40° ENE 18:52:14 40° ENE
Cosmos 2278 Rocket 2.8 18:47:30 10° NNW 18:53:02 55° WSW 18:58:32 10° S
MOS 1-B 4.2 18:47:52 10° SSE 18:53:39 81° ENE 18:59:27 10° NNW
Feng Yun 1-1 Rocket 4.2 18:51:38 17° SSE 18:56:06 70° ENE 19:01:44 10° N
ISS -1.0 18:55:17 10° W 18:57:08 14° SW 18:58:58 10° SSW
CZ-4C R/B 2.8 18:55:14 10° NNE 18:58:40 77° ESE 19:02:10 10° S
Cosmos 1605 Rocket 4.1 18:54:20 10° N 19:00:17 51° ENE 19:02:32 35° SE
Cosmos 1339 Rocket 4.4 18:54:40 10° S 19:00:56 79° E 19:07:19 10° N
Cosmos 1934 Rocket 3.9 18:55:24 10° N 19:01:46 85° E 19:07:58 10° S
USA 267 4.4 18:58:14 19° ENE 19:01:55 33° N 19:07:35 10° NW
Cosmos 389 Rocket 4.3 19:00:04 10° N 19:01:01 18° N 19:01:01 18° N
USA 276 3.9 19:01:11 10° WSW 19:02:13 21° SW 19:02:13 21° SW
Cosmos 1535 Rocket 4.3 19:00:02 10° N 19:06:09 70° E 19:09:50 25° SSE
Cosmos 2251 Rocket 3.4 19:05:01 10° S 19:10:12 62° ESE 19:15:25 10° NNE
Cosmos 1674 Rocket 3.6 19:08:52 10° N 19:12:54 59° NE 19:12:54 59° NE
CZ-4 R/B 2.3 19:12:15 19° SSW 19:14:43 45° W 19:18:23 10° NNW
Cosmos 2237 Rocket 3.1 19:13:14 10° SW 19:18:44 48° WNW 19:24:16 10° NNE
Cosmos 1656 Rocket 4.4 19:14:06 10° N 19:18:42 34° NE 19:18:42 34° NE
SL-4 R/B 2.5 19:15:35 10° SW 19:18:59 51° SSW 19:18:59 51° SSW
Cosmos 2369 Rocket 3.0 19:16:29 10° N 19:21:10 33° NE 19:21:10 33° NE
Lacrosse 5 2.5 19:17:25 10° NW 19:22:15 40° NNE 19:22:30 40° NE
SL-16 R/B 2.0 19:22:29 10° SSW 19:28:05 69° ESE 19:33:46 10° NNE
Cosmos 1470 4.3 19:24:57 10° SW 19:28:31 36° WNW 19:32:07 10° N
Meteor 1-22 Rocket 4.2 19:27:07 10° SSW 19:32:23 74° W 19:37:44 10° N
SJ-6B 4.2 19:30:49 25° SW 19:32:27 36° W 19:36:09 10° NNW
Cosmos 1943 Rocket 2.7 19:27:50 10° NNW 19:33:22 56° WSW 19:35:35 34° S
CZ-4C R/B 4.3 19:31:21 10° NNW 19:36:30 23° NNE 19:38:12 21° NE
Cosmos 2221 Rocket 3.9 19:34:35 10° NNW 19:38:56 65° W 19:38:56 65° W
ATLAS 3B R/B 4.4 19:33:18 10° W 19:39:31 31° NNW 19:46:07 10° NNE
Okean O Rocket 2.5 19:39:33 39° SW 19:40:30 46° W 19:44:48 10° NNW
CENTAUR R/B 3.8 19:34:04 10° NNW 19:41:37 42° NE 19:43:21 38° ENE
ADEOS Rocket 3.4 19:38:44 41° SSE 19:41:49 86° ENE 19:49:04 10° NNW
Cosmos 2297 3.7 19:40:05 10° NNW 19:45:25 70° NNE 19:45:25 70° NNE
Tiangong 1.1 19:43:14 10° W 19:43:35 12° WSW 19:43:35 12° WSW
Cosmos 1153 Rocket 4.4 19:44:23 10° N 19:50:18 73° NE 19:50:18 73° NE
Cosmos 407 Rocket 4.0 19:53:39 10° SW 19:58:48 58° WNW 20:04:03 10° NNE
USA 229 DEB 4.1 19:55:33 10° SW 20:01:38 56° NW 20:08:20 10° NNE
USA 229 4.1 19:55:37 10° SW 20:01:44 57° NW 20:08:26 10° NNE
Resurs 01 Rocket 3.2 20:09:57 33° NW 20:09:57 33° NW 20:12:39 10° NNW
USA 267 3.9 20:45:35 49° NNW 20:45:35 49° NNW 20:50:36 10° NW
Lacrosse 5 4.4 21:00:25 10° WNW 21:01:41 17° WNW 21:01:41 17° WNW
Cosmos 2369 Rocket 4.1 21:00:27 10° NW 21:02:57 25° NW 21:02:57 25° NW
SL-16 R/B 4.3 21:08:22 10° W 21:12:45 22° NW 21:17:10 10° N
CZ-4C R/B 4.0 21:19:17 10° NNW 21:23:20 37° NNW 21:23:20 37° NNW
CENTAUR R/B 3.9 21:24:39 10° NW 21:30:30 50° WNW 21:30:30 50° WNW
